Dewpoint
14 13 14 13 13 16 14 13 12 11 13 11 15 16 15 15 16 16 14 14 16 15 13 14 14 14 12 14 11 11 12 13 13 12 13 13 12 14 14 14 15 14 14
12 15 15 14 12 13 13 13 13 15 13 13 15 16 15 15 14 14 15 13 15 15 15 15 13 13 15 15 13 15 15 15 15 14 12 14 15 15 15 14 14 14 14
13 14 15 14 13 13 14 13 15 14 15 14 14 14 15 14 15 14 13 13 16 15 15 15 14 15 15 13 14 13 14 12 13 14 12 15 15 15 14 12 13 14 13
15 13 15 13 14 14 14 14 13 14 13 14 14 16 14 14 15 17 16 14 14 14 14 15 15 15 14 15 15 14 13 12 11 14 13 13 14 14 14 12 10 10 10
15 15 15 13 15 16 14 16 15 15 14 15 14 14 15 15 15 15 15 15 14 14 15 14 16 16 16 16 15 15 14 11 12 12 12 12 12 13 14 15 14 13 12
15 15 14 15 13 15 14 16 15 15 15 15 15 16 15 14 13 14 16 16 14 15 14 14 16 16 15 14 13 13 13 13 13 14 14 14 15 15 15 14 13 13 14
15 15 14 15 13 13 15 15 16 14 14 14 14 14 12 12 12 12 13 14 15 14 13 14 13 13 15 14 14 13 13 14 15 15 14 14 13 13 13 13 13 15 16
14 15 15 14 13 14 14 14 14 15 14 15 14 13 13 12 13 11 11 12 13 14 13 13 12 13 14 13 14 13 13 13 13 13 11 12 13 13 13 13 14 15 15
15 15 14 13 13 14 15 15 14 14 14 14 14 13 10 8 11 13 12 12 12 12 13 13 14 13 14 13 13 13 12 11 9 8 11 12 12 13 14 14 14 14 13
16 15 14 14 13 13 14 14 14 13 14 13 12 11 9 11 12 12 12 13 13 13 13 14 14 14 13 12 11 10 7 5 3 9 10 13 13 12 11 11 11 11 11
16 15 15 15 13 14 14 14 14 14 14 14 13 12 13 11 10 11 12 13 14 14 13 12 12 11 10 9 9 8 6 1 -1 6 7 11 11 10 9 8 7 6 6
16 16 16 15 14 14 14 14 13 14 14 14 13 13 13 12 12 12 13 14 14 13 13 12 10 9 7 5 5 2 -2 -5 -5 -1 5 7 8 7 7 6 6 6 5
15 15 14 14 14 14 14 14 14 14 13 14 14 13 13 13 12 12 12 13 13 13 12 10 9 7 6 3 0 -2 -4 -2 1 1 3 6 6 5 1 4 4 0 1
12 12 12 12 12 12 13 13 13 13 13 12 11 10 10 11 12 12 11 10 9 8 8 6 4 -0 -3 -4 -3 -1 0 0 -4 -5 -7 -3 -4 -6 -7 -8 -10 -12 -10
7 9 10 10 11 11 11 12 12 12 12 11 12 10 9 9 7 8 7 7 5 3 0 -3 -5 -6 -5 -1 1 2 -1 -12 -14 -16 -15 -17 -18 -18 -16 -14 -15 -14 -12
2 4 4 3 1 4 8 10 10 9 9 9 9 9 8 8 7 4 2 -1 -5 -6 -8 -6 -2 -5 -4 -5 -6 -8 -8 -10 -12 -12 -13 -13 -13 -13 -14 -14 -14 -14 -15
2 3 5 5 4 4 1 -2 -1 3 0 6 8 8 7 7 6 1 -3 -6 -11 -12 0 1 1 0 0 0 0 -1 -4 -5 -7 -10 -11 -12 -11 -12 -14 -16 -17 -17 -16
1 3 3 2 2 3 2 0 -1 -1 -4 -8 -5 -5 -4 -4 -7 -9 -13 -17 -12 -0 0 1 1 1 0 0 0 -1 -3 -5 -7 -7 -9 -11 -12 -14 -15 -14 -14 -13 -13
-8 -4 -2 0 -0 -1 0 0 -1 -1 -2 -2 -3 -5 -13 -15 -16 -17 -15 -7 -2 -1 -1 -0 -0 -1 -1 -2 -2 -3 -5 -8 -10 -9 -9 -12 -14 -14 -14 -14 -13 -13 -12
-2 -5 -4 -3 -3 -3 -2 -2 -2 -3 -2 -2 -2 -3 -3 -8 -18 -14 -5 -1 -1 -1 -2 -2 -1 -1 -1 -2 -3 -3 -3 -5 -8 -10 -12 -13 -13 -13 -13 -12 -11 -10 -9
-2 -2 -3 -5 -7 -7 -6 -3 -4 -3 -3 -3 -2 -2 -2 -4 -0 -1 -2 -4 -1 -1 -1 -1 -1 -2 -4 -5 -5 -5 -4 -7 -9 -10 -12 -12 -12 -12 -11 -10 -9 -8 -7
-2 -2 -1 -5 -6 -6 -6 -5 -3 -3 -4 -3 -3 -3 -3 -2 -3 -2 -1 -1 -2 -1 -1 -1 -2 -2 -3 -4 -8 -8 -7 -9 -10 -11 -12 -12 -11 -10 -9 -8 -8 -7 -6
-1 -0 1 0 -0 -5 -8 -7 -7 -3 -3 -3 -2 -3 -3 -3 -4 -2 -2 -2 -2 -2 -2 -3 -3 -2 -3 -5 -8 -8 -10 -10 -10 -11 -11 -11 -10 -8 -8 -7 -6 -6 -6
2 1 2 2 1 0 -1 -1 -1 -2 -2 -3 -3 -3 -3 -3 -6 -4 -2 -2 -2 -3 -3 -3 -3 -3 -3 -3 -6 -9 -8 -8 -10 -11 -11 -11 -9 -8 -7 -6 -6 -4 -2
6 4 3 3 1 -0 -1 -1 -1 -1 -2 -3 -3 -2 -3 -3 -4 -3 -3 -3 -3 -3 -3 -3 -3 -3 -3 -4 -6 -7 -8 -9 -9 -10 -11 -11 -10 -7 -6 -5 -5 -4 -2
5 6 6 3 4 2 1 -0 -0 -1 -2 -2 -2 -2 -2 -2 -2 -2 -4 -4 -3 -3 -2 -2 -1 -2 -2 -2 -2 -4 -5 -3 -4 -6 -8 -9 -11 -9 -6 -5 -3 -2 -2
Wind_Speed
21 21 16 16 20 17 13 8 6 9 7 10 13 13 12 10 8 9 7 8 4 2 3 10 7 9 6 3 5 7 6 5 6 5 4 7 9 13 10 9 13 10 14
21 22 19 15 15 13 12 11 9 8 8 7 12 14 12 13 12 7 6 8 7 2 1 5 5 5 7 6 3 4 4 4 7 8 8 10 15 12 6 5 9 11 7
24 26 22 21 18 15 15 11 12 11 8 8 11 11 12 12 9 4 2 8 6 4 4 5 4 4 5 5 6 5 6 8 8 8 9 9 12 7 13 8 11 14 13
29 27 28 22 21 18 16 15 13 15 12 10 12 10 10 10 9 7 7 4 10 7 5 5 7 7 8 8 7 7 9 8 6 6 8 11 11 14 16 18 17 17 16
30 30 30 29 25 25 22 18 19 18 14 14 11 12 12 11 10 9 10 8 7 11 11 8 9 7 8 9 11 12 13 10 8 7 8 11 12 15 18 18 19 20 18
31 33 30 28 28 21 25 20 22 17 18 17 13 12 15 14 13 10 11 14 11 10 11 8 14 12 11 9 8 8 8 9 9 9 10 12 14 15 16 19 17 16 18
34 33 29 26 21 24 25 25 23 23 24 15 17 17 14 11 13 13 11 13 14 14 14 10 14 16 11 10 10 11 12 9 8 9 10 11 13 11 11 9 10 11 13
30 31 28 24 18 17 21 21 18 16 18 20 22 15 12 12 12 13 14 15 17 18 18 17 15 13 13 13 13 13 12 11 9 10 12 6 5 5 6 9 10 9 5
24 23 24 18 14 14 13 16 16 16 15 18 18 18 21 16 11 11 8 10 11 12 14 14 13 13 13 12 8 8 8 6 5 3 1 1 4 6 5 5 8 12 13
15 14 14 14 12 12 14 15 16 16 15 15 15 13 16 16 11 8 6 10 10 8 6 8 9 9 8 7 7 6 4 3 1 5 3 5 6 3 3 6 9 12 14
17 16 15 14 13 10 9 9 9 12 13 14 15 15 12 11 10 9 9 9 9 6 5 3 2 3 4 5 6 7 6 5 5 5 4 6 3 2 1 3 7 9 8
19 19 19 16 13 11 11 10 8 10 13 12 12 12 11 11 10 7 9 7 6 5 6 5 4 5 5 6 8 7 8 8 9 10 11 8 5 6 7 9 6 5 5
15 16 14 14 14 13 11 11 10 8 9 10 12 12 11 11 9 9 11 11 11 11 10 8 8 10 9 11 11 10 10 10 11 11 10 9 9 10 11 10 10 7 9
14 15 14 12 10 9 12 10 11 12 11 10 8 5 5 6 7 8 8 8 8 8 9 10 10 10 10 10 10 10 8 9 7 6 5 5 6 7 8 10 11 10 8
13 12 9 9 9 8 9 11 10 11 10 8 8 10 7 5 3 5 5 7 9 9 11 12 10 10 10 10 10 10 9 7 5 4 4 4 4 3 5 6 8 9 11
9 8 7 5 3 1 3 4 4 4 7 8 10 10 9 8 8 10 12 14 12 11 9 8 5 5 3 4 4 5 4 3 4 3 3 4 5 6 6 7 10 13 14
7 8 9 8 6 1 3 2 6 10 9 11 14 13 13 15 17 18 16 12 8 7 8 6 5 6 6 7 6 5 4 1 2 3 4 5 6 6 8 9 11 14 15
8 9 8 4 4 5 2 2 4 5 4 4 6 10 15 14 12 10 8 6 9 11 11 10 9 9 11 11 10 9 7 3 3 5 5 5 6 7 8 10 12 14 16
3 9 10 13 9 8 7 6 1 4 6 5 8 8 7 7 6 5 7 10 11 10 11 12 12 12 12 12 10 9 7 5 5 5 6 6 7 8 9 11 12 13 15
2 6 9 9 10 10 11 10 12 5 1 3 4 4 2 2 5 9 12 9 6 11 13 12 13 13 12 11 7 7 6 7 6 5 6 7 8 9 9 10 12 13 15
3 3 7 10 12 10 10 14 13 14 6 8 7 5 5 3 5 8 7 13 10 10 13 13 14 14 12 9 7 7 8 9 6 5 6 7 8 8 9 10 10 11 11
9 7 6 7 10 12 10 12 8 11 13 7 10 12 11 10 9 8 10 11 15 16 16 15 15 11 10 8 7 8 9 9 6 6 7 8 9 9 9 9 9 9 10
14 10 10 8 9 10 11 9 14 16 14 15 7 8 12 14 13 15 12 15 16 18 17 15 13 12 12 9 6 7 10 7 5 8 8 9 9 9 8 8 9 9 10
16 13 11 16 15 13 11 10 8 10 13 11 12 18 16 14 10 16 13 14 15 15 14 9 12 12 12 11 9 8 5 6 8 10 10 11 11 10 9 10 10 10 13
19 17 19 15 21 17 14 11 14 13 12 13 15 13 13 13 9 14 16 17 17 16 17 15 11 12 13 11 11 9 9 6 10 10 12 13 13 13 12 12 13 12 13
18 21 21 20 19 15 18 17 18 18 18 16 17 18 20 19 19 19 21 21 18 18 15 14 12 10 9 6 8 8 3 9 12 15 16 15 15 15 15 14 11 11 14
Wind_Direction
203 203 206 215 211 215 219 232 217 170 178 198 189 202 205 235 231 230 244 226 265 267 271 246 271 282 314 334 296 286 307 323 328 342 334 348 4 351 328 326 336 360 6
202 202 202 195 194 204 217 219 213 209 200 195 204 215 219 235 244 253 263 240 232 224 332 312 310 260 267 291 293 286 297 310 342 340 345 358 352 346 350 351 351 5 10
202 205 202 200 200 200 198 213 208 213 220 214 213 218 216 208 219 223 338 237 219 219 247 288 328 308 345 317 289 305 299 295 314 301 295 342 1 330 353 322 334 326 325
206 200 209 206 207 205 210 214 226 218 236 230 224 222 216 218 224 228 257 248 239 225 235 256 282 310 289 304 307 316 321 312 312 298 297 316 331 323 331 331 328 330 330
210 207 207 213 204 203 207 208 209 219 232 235 228 237 233 225 228 231 256 262 246 230 237 250 278 250 274 282 294 296 298 299 308 315 315 316 318 322 335 340 332 330 336
221 208 214 216 219 223 219 218 215 214 222 226 218 228 238 243 242 244 251 251 268 267 245 257 261 267 268 286 303 314 310 302 308 314 322 323 329 333 328 329 337 350 5
227 217 204 202 223 242 226 228 231 228 233 238 232 232 233 250 249 248 256 248 251 256 263 260 261 262 272 281 282 292 299 295 301 311 326 335 341 348 350 358 357 3 16
209 207 219 232 235 236 230 228 229 230 224 229 233 226 226 243 244 250 259 262 252 251 262 267 269 266 268 273 276 288 288 291 303 326 343 5 45 16 349 347 348 346 348
219 222 221 218 232 235 222 221 218 216 222 230 226 226 221 215 244 253 245 252 256 260 255 252 251 259 265 271 272 273 281 289 308 41 52 223 301 288 316 309 327 343 342
203 202 206 207 214 219 224 230 231 229 223 218 214 224 221 225 238 253 250 245 243 250 253 243 243 243 250 257 262 274 294 310 276 168 73 129 153 121 360 345 327 335 342
194 197 205 198 191 188 197 195 213 213 209 213 225 216 228 239 257 253 271 229 231 221 221 213 232 240 228 242 257 270 276 262 240 233 221 193 222 267 25 353 334 347 2
182 189 191 204 195 192 203 213 209 206 203 210 216 228 244 244 247 232 210 200 210 214 234 240 268 277 261 254 262 275 282 278 268 251 247 239 254 285 307 295 300 338 314
210 211 179 160 162 173 185 203 205 221 224 224 221 233 241 239 223 221 223 224 231 234 241 248 257 269 279 289 294 294 288 280 281 273 265 260 271 284 289 295 296 288 253
140 146 133 148 153 172 183 186 187 182 185 167 165 201 228 203 194 198 196 215 224 229 244 259 269 275 276 274 274 271 275 289 282 272 271 270 271 276 285 297 310 311 303
116 123 128 111 118 136 141 156 157 162 170 187 194 210 253 284 233 216 235 244 260 265 267 264 267 269 260 255 259 268 277 271 261 248 254 262 284 299 311 322 319 328 335
113 122 126 121 122 267 215 198 212 176 183 187 190 197 219 249 269 283 285 291 284 273 250 244 251 240 234 217 225 234 228 220 201 210 247 292 323 336 339 341 339 341 347
146 157 161 166 157 80 74 145 235 247 250 235 238 240 245 260 273 282 281 275 255 204 181 191 222 214 194 189 212 238 265 235 247 276 308 328 342 340 338 341 338 338 342
169 165 184 162 172 181 152 78 86 16 348 247 265 278 267 267 268 261 250 224 173 169 182 198 221 229 232 224 228 243 243 265 263 272 290 317 336 337 339 340 344 344 345
198 188 198 205 219 207 203 201 247 265 283 311 301 316 288 252 246 224 184 167 173 176 202 212 226 244 247 243 237 234 245 235 238 282 308 326 332 334 336 338 339 341 342
230 212 219 233 244 246 246 232 219 230 293 269 270 300 290 306 180 182 180 164 161 192 209 224 232 239 249 255 237 220 239 259 276 295 307 318 327 332 337 342 345 348 350
306 268 244 244 257 266 249 242 235 233 216 254 276 282 261 261 203 206 179 221 200 225 229 236 248 252 249 241 226 211 240 263 289 305 312 319 327 333 343 345 348 351 350
261 275 287 278 256 261 263 241 234 246 227 257 259 262 270 266 273 229 207 234 235 231 240 251 254 253 258 265 242 231 248 272 296 304 320 327 333 341 342 344 346 350 354
252 254 274 293 306 283 271 271 249 250 254 230 266 250 262 275 271 218 230 241 246 251 251 250 224 232 251 268 263 247 259 287 293 317 325 326 330 330 335 339 337 338 344
255 247 262 273 279 292 301 293 285 274 251 261 245 261 263 262 259 214 237 245 249 259 270 243 223 222 246 271 265 266 284 303 314 323 323 325 325 325 326 322 322 331 343
261 247 241 265 265 264 264 274 270 268 275 251 253 264 253 242 223 219 235 249 257 257 267 259 249 236 244 248 265 280 288 297 329 330 330 326 323 325 318 313 316 325 335
262 258 260 238 260 261 257 261 265 258 261 265 253 252 250 249 252 248 245 248 251 260 255 255 254 259 280 301 326 307 287 348 348 338 332 326 323 320 316 312 324 332 329
Height
1574 1578 1583 1587 1588 1589 1590 1590 1590 1592 1592 1592 1595 1597 1599 1600 1599 1599 1599 1600 1601 1602 1602 1603 1604 1605 1606 1606 1606 1605 1602 1602 1603 1603 1601 1599 1595 1593 1595 1594 1593 1590 1588
1571 1576 1579 1583 1586 1587 1589 1590 1589 1590 1591 1592 1594 1596 1597 1597 1597 1598 1597 1598 1599 1600 1601 1601 1600 1601 1601 1603 1603 1603 1603 1602 1601 1599 1597 1595 1594 1594 1594 1593 1590 1587 1585
1569 1571 1574 1579 1580 1583 1585 1587 1589 1589 1590 1591 1593 1594 1595 1595 1595 1596 1595 1595 1597 1598 1599 1600 1600 1600 1600 1600 1601 1600 1600 1599 1599 1597 1595 1595 1595 1593 1592 1590 1587 1585 1583
1568 1568 1570 1577 1579 1580 1582 1583 1585 1586 1588 1590 1591 1591 1592 1593 1591 1591 1592 1594 1595 1596 1597 1597 1598 1598 1597 1598 1599 1599 1598 1597 1596 1595 1594 1594 1594 1592 1589 1585 1583 1581 1579
1563 1565 1567 1573 1575 1576 1578 1580 1581 1584 1585 1587 1587 1588 1588 1589 1589 1590 1591 1591 1592 1593 1594 1595 1593 1594 1594 1595 1596 1596 1595 1594 1593 1593 1592 1591 1590 1587 1585 1582 1580 1578 1577
1555 1561 1565 1568 1572 1573 1574 1574 1577 1578 1582 1583 1583 1584 1584 1585 1587 1587 1589 1590 1590 1590 1589 1590 1590 1590 1592 1592 1594 1594 1593 1592 1591 1589 1589 1588 1586 1584 1582 1579 1576 1574 1573
1550 1556 1561 1567 1568 1569 1570 1572 1572 1573 1575 1578 1578 1578 1581 1582 1584 1586 1588 1589 1588 1586 1586 1587 1587 1588 1589 1589 1590 1591 1590 1589 1587 1586 1585 1584 1583 1581 1579 1578 1576 1575 1575
1551 1554 1557 1562 1561 1562 1565 1566 1569 1569 1571 1572 1575 1578 1579 1580 1581 1583 1584 1585 1583 1583 1584 1585 1585 1587 1587 1587 1587 1587 1587 1586 1585 1584 1583 1581 1580 1579 1578 1577 1576 1575 1575
1547 1549 1552 1554 1556 1557 1560 1561 1565 1567 1568 1570 1571 1573 1574 1577 1579 1579 1579 1579 1580 1580 1580 1581 1582 1583 1583 1583 1584 1584 1584 1584 1584 1583 1580 1578 1578 1576 1577 1576 1574 1573 1571
1542 1545 1547 1549 1551 1554 1556 1559 1562 1563 1565 1567 1569 1571 1571 1573 1575 1575 1576 1576 1577 1577 1576 1578 1580 1580 1581 1581 1582 1582 1582 1582 1581 1581 1578 1576 1576 1576 1575 1574 1572 1571 1571
1540 1543 1547 1548 1548 1551 1555 1557 1558 1561 1562 1564 1567 1568 1569 1570 1572 1571 1571 1573 1574 1575 1575 1576 1577 1578 1578 1579 1578 1579 1579 1580 1580 1579 1577 1576 1575 1574 1573 1573 1572 1571 1569
1537 1541 1544 1545 1547 1549 1554 1556 1557 1558 1560 1562 1565 1566 1567 1568 1568 1570 1570 1571 1572 1573 1574 1575 1576 1577 1578 1577 1576 1576 1577 1576 1577 1576 1574 1573 1572 1572 1572 1570 1571 1572 1569
1537 1540 1542 1544 1546 1547 1552 1555 1555 1557 1560 1561 1564 1566 1564 1565 1567 1567 1570 1570 1571 1574 1574 1574 1574 1575 1575 1576 1575 1575 1575 1575 1574 1573 1571 1571 1570 1569 1569 1570 1570 1569 1567
1540 1542 1543 1544 1546 1547 1548 1552 1554 1555 1558 1558 1559 1563 1564 1563 1564 1566 1566 1570 1570 1571 1572 1572 1572 1572 1572 1573 1572 1573 1571 1572 1571 1570 1569 1569 1567 1567 1565 1566 1566 1564 1564
1544 1545 1547 1547 1549 1550 1550 1553 1554 1554 1556 1558 1560 1561 1563 1563 1565 1565 1566 1566 1568 1568 1567 1568 1569 1570 1569 1568 1568 1570 1570 1568 1567 1568 1568 1567 1565 1563 1564 1563 1563 1561 1560
1546 1547 1548 1548 1551 1554 1553 1553 1555 1555 1556 1557 1561 1562 1562 1562 1562 1564 1564 1564 1563 1565 1565 1564 1566 1565 1566 1567 1565 1565 1567 1566 1565 1564 1565 1566 1565 1562 1561 1560 1561 1561 1558
1548 1552 1552 1553 1552 1553 1551 1551 1554 1555 1555 1557 1559 1560 1560 1561 1560 1560 1560 1561 1560 1562 1563 1563 1564 1567 1565 1564 1562 1563 1565 1566 1566 1563 1563 1563 1564 1562 1561 1559 1558 1558 1557
1549 1549 1552 1553 1553 1551 1553 1550 1551 1553 1554 1554 1556 1554 1555 1554 1556 1556 1558 1558 1560 1560 1561 1561 1564 1565 1566 1566 1563 1562 1561 1563 1563 1563 1561 1562 1561 1560 1558 1557 1555 1555 1554
1549 1549 1550 1551 1554 1554 1552 1551 1549 1551 1551 1552 1553 1550 1552 1552 1553 1555 1558 1559 1559 1559 1559 1560 1561 1562 1565 1564 1563 1563 1562 1559 1558 1560 1562 1561 1559 1558 1557 1555 1555 1553 1552
1547 1549 1550 1550 1551 1552 1552 1552 1551 1549 1549 1550 1551 1550 1552 1551 1551 1555 1556 1556 1558 1560 1559 1559 1559 1558 1561 1564 1563 1562 1561 1560 1558 1558 1560 1559 1558 1556 1554 1553 1551 1550 1549
1545 1546 1548 1548 1548 1548 1549 1549 1551 1550 1548 1547 1547 1549 1551 1551 1554 1554 1552 1554 1555 1559 1559 1557 1558 1560 1559 1560 1559 1559 1559 1559 1558 1558 1558 1557 1555 1553 1551 1550 1548 1547 1546
1544 1545 1544 1545 1546 1546 1546 1547 1547 1547 1548 1546 1545 1547 1549 1549 1551 1552 1552 1553 1553 1554 1557 1556 1557 1559 1557 1557 1557 1556 1555 1558 1558 1557 1556 1554 1553 1551 1549 1547 1545 1544 1543
1541 1541 1542 1543 1544 1544 1543 1543 1543 1545 1545 1546 1545 1544 1546 1548 1547 1549 1550 1551 1553 1554 1555 1555 1554 1554 1554 1554 1555 1555 1556 1557 1557 1556 1554 1552 1550 1549 1545 1544 1544 1542 1541
1539 1537 1538 1540 1543 1542 1540 1540 1541 1541 1542 1542 1543 1542 1543 1544 1545 1547 1547 1548 1551 1551 1552 1551 1553 1552 1552 1552 1553 1552 1554 1555 1555 1553 1552 1550 1549 1546 1542 1542 1539 1539 1537
1535 1535 1535 1536 1536 1536 1536 1537 1537 1538 1539 1539 1540 1541 1542 1541 1542 1545 1546 1546 1548 1549 1550 1549 1550 1550 1551 1552 1552 1552 1551 1553 1550 1550 1549 1548 1546 1544 1541 1538 1537 1536 1536
1528 1529 1529 1531 1532 1532 1532 1533 1534 1534 1535 1536 1537 1537 1538 1539 1540 1541 1542 1543 1544 1545 1546 1547 1547 1547 1547 1549 1550 1551 1550 1550 1548 1546 1545 1544 1542 1540 1538 1535 1534 1535 1535